Regional Weather Roundup
Issued by NWS

Home | Current Version | Previous Version | Graphics & Text | Print | Product List | Glossary On
Versions: 1 2 3 4 5 6 7 8 9 10 11 12 13 14 15 16 17 18 19 20 21 22 23 24 25 26 27 28 29 30 31 32 33 34 35 36 37 38 39 40 41 42 43 44 45 46 47 48 49 50
000
ASUS43 KBIS 052202
RWRND

NORTH DAKOTA REGIONAL WEATHER ROUNDUP
NATIONAL WEATHER SERVICE BISMARCK ND
500 PM CDT THU MAY 05 2016

NOTE: "FAIR" INDICATES FEW OR NO CLOUDS BELOW 12,000 FEET WITH NO
SIGNIFICANT WEATHER AND/OR OBSTRUCTIONS TO VISIBILITY.


NDZ001>003-009>011-017-052300-
NORTHWEST NORTH DAKOTA

CITY           SKY/WX    TMP DP  RH WIND       PRES   REMARKS
WILLISTON      MOSUNNY   87  36  16 SW10      29.77F
MINOT          SUNNY     94  34  12 W7G22     29.74F
MINOT AFB      SUNNY     90  37  15 SW8G20    29.72F
$$

NDZ018>021-031>035-040>046-052300-
SOUTHWEST NORTH DAKOTA

CITY           SKY/WX    TMP DP  RH WIND       PRES   REMARKS
BISMARCK       SUNNY     88  45  22 SW7       29.80F
DICKINSON      SUNNY     84  31  14 SW8       29.81F
GARRISON         N/A     88  39  17 SW12      29.78F
HETTINGER ARPT SUNNY     83  41  22 S5        29.86F
$$

NDZ004>008-012>016-024-026-027-054-052300-
NORTHEAST NORTH DAKOTA

CITY           SKY/WX    TMP DP  RH WIND       PRES   REMARKS
GRAND FORKS    MOSUNNY   92  39  15 SW20      29.73F
GRND FRKS AFB  SUNNY     91  37  15 W14G31    29.74F
DEVILS LAKE    SUNNY     87  42  20 SW9       29.77F
$$

NDZ022-023-025-028>030-036>039-047>053-052300-
SOUTHEAST NORTH DAKOTA

CITY           SKY/WX    TMP DP  RH WIND       PRES   REMARKS
FARGO          SUNNY     90  34  13 SW16      29.78F
JAMESTOWN      SUNNY     87  41  19 SW12G24   29.79F
$$





USA.gov is the U.S. government's official web portal to all federal, state and local government web resources and services.